Weather in Senno

Belarus     54°48′46″N   29°42′22″E
temp.,
°C
wind,
m/s
gust,
m/s
humid.,
%
clouds,
%
prec.,
mm/h
press.,
hPa
HPBL,
m
22 october, fri
fri2200:00+13sw11196433 0.0 9921454
03:00+11wsw9167137 0.0 9951154
06:00+10wsw9166986 0.0 9951319
09:00+8wsw9167625 0.4 9971324
12:00+9wsw101663100 0.1 10001778
15:00+8wsw10166188 0.2 10011538
18:00+7wsw814669 0.0 10021021
21:00+6sw91568100 0.0 10021010
23 october, sat
sat2300:00+7sw10166499 0.0 10021229
03:00+5sw101780100 0.0 10011207
06:00+5wsw71377100 0.4 1002952
09:00+5wsw7138459 0.5 1003748
12:00+7w8116840 0.0 10061166
15:00+7w81266100 0.1 10071304
18:00+7wsw71167100 0.0 10091031
21:00+6w71281100 0.3 1011746
24 october, sun
sun2400:00+4w6128471 0.1 1013642
03:00+3wnw6118656 0.2 1015701
06:00+2nw61184100 0.0 1017737
09:00+2nw7109199 0.1 1020709
12:00+2nnw6972100 0.1 10231134
15:00+3nnw7962100 0.1 10251320
18:00+2nnw6860100 0.0 10271126
21:00+2nnw4661100 0.0 1029716
25 october, mon
mon2500:000nw3672100 0.0 1030131
03:00−1nw2283100 0.0 103125
06:00−2wsw228545 0.0 103231
09:00−1ssw358045 0.0 1032147
12:00+4sw465140 0.0 1032499
15:00+6sw574866 0.0 1030685
18:00+2ssw410685 0.0 1030188
21:00+1ssw513755 0.0 1029266
26 october, tue
tue2600:00+1ssw5138015 0.0 1029285
03:000ssw5148193 0.0 1028278
06:00+1ssw61576100 0.0 1026305
09:00+1ssw71669100 0.0 1025361
12:00+5ssw71555100 0.0 1023503
15:00+7ssw71354100 0.0 1022604
18:00+5ssw61462100 0.0 1021441
21:00+4sw61466100 0.0 1020412